Change the Weather History Date:

Wednesday, February 1, 2012

  Actual Average Record
Temperature  
Mean Temperature 61 °F -  
Max Temperature 71 °F 51 °F 82 °F (2002)
Min Temperature 51 °F 30 °F 9 °F (1965)
Degree Days  
Heating Degree Days 4    
Growing Degree Days 11 (Base 50)    
Moisture  
Dew Point 42 °F    
Average Humidity 51    
Maximum Humidity 77    
Minimum Humidity 37    
Precipitation  
Precipitation 0.00 in - - ()
Sea Level Pressure  
Sea Level Pressure 30.15 in    
Wind  
Wind Speed 10 mph (SW)    
Max Wind Speed 17 mph    
Max Gust Speed 25 mph    
Visibility 10 miles    
Events Rain    
Averages and records for this station are not official NWS values.
T = Trace of Precipitation, MM = Missing Value Source: NWS Daily Summary

Daily Weather History Graph

Daily Weather History Graph

Search for Another Location

Airport or City:

Trip Planner

Search our weather history database for the weather conditions in past years. The results will help you decide how hot, cold, wet, or windy it might be!

Date:

Astronomy

Feb. 01, 2012 Rise Set
Actual Time 7:08 AM EST 5:31 PM EST
Civil Twilight 6:41 AM EST 5:58 PM EST
Nautical Twilight 6:10 AM EST 6:29 PM EST
Astronomical Twilight 5:40 AM EST 7:00 PM EST
Moon 12:00 PM EST (2/1) 1:50 AM EST (2/1)
Length of Visible Light 11h 17m
Length of Day
10h 22m
Waxing Gibbous, 64% of the Moon is Illuminated
Feb 1
Waxing Gibbous
Feb 7
Full
Feb 14
Last Quarter
Feb 21
New
Feb 29
First Quarter

Hourly Weather History & Observations

Time (EST) Temp. Dew Point Humidity Pressure Visibility Wind Dir Wind Speed Gust Speed Precip Events Conditions
12:15 AM 53.6 °F 35.6 °F 51% 30.25 in 10.0 mi SSW 9.2 mph - N/A   Clear
12:35 AM 53.6 °F 35.6 °F 51% 30.24 in 10.0 mi SSW 8.1 mph - N/A   Clear
12:55 AM 53.6 °F 35.6 °F 51% 30.24 in 10.0 mi SSW 9.2 mph 17.3 mph N/A   Clear
1:15 AM 53.6 °F 35.6 °F 51% 30.23 in 10.0 mi SSW 10.4 mph - N/A   Clear
1:35 AM 53.6 °F 35.6 °F 51% 30.22 in 10.0 mi SSW 9.2 mph - N/A   Clear
1:55 AM 53.6 °F 35.6 °F 51% 30.22 in 10.0 mi SW 8.1 mph - N/A   Clear
2:15 AM 53.6 °F 35.6 °F 51% 30.22 in 10.0 mi SW 6.9 mph - N/A   Clear
2:35 AM 51.8 °F 35.6 °F 54% 30.22 in 10.0 mi SSW 9.2 mph - N/A   Clear
3:15 AM 51.8 °F 35.6 °F 54% 30.21 in 10.0 mi SW 8.1 mph - N/A   Clear
3:35 AM 53.6 °F 35.6 °F 51% 30.20 in 10.0 mi SW 11.5 mph - N/A   Clear
3:55 AM 53.6 °F 35.6 °F 51% 30.19 in 10.0 mi SW 11.5 mph 17.3 mph N/A   Clear
4:15 AM 53.6 °F 35.6 °F 51% 30.19 in 10.0 mi SW 9.2 mph - N/A   Clear
4:35 AM 53.6 °F 35.6 °F 51% 30.19 in 10.0 mi SW 9.2 mph - N/A   Scattered Clouds
4:55 AM 51.8 °F 35.6 °F 54% 30.19 in 10.0 mi SW 8.1 mph - N/A   Scattered Clouds
5:15 AM 53.6 °F 35.6 °F 51% 30.19 in 10.0 mi SW 8.1 mph - N/A   Clear
5:35 AM 53.6 °F 35.6 °F 51% 30.19 in 10.0 mi SW 10.4 mph - N/A   Clear
6:15 AM 53.6 °F 35.6 °F 51% 30.19 in 10.0 mi SW 9.2 mph - N/A   Clear
6:35 AM 53.6 °F 35.6 °F 51% 30.19 in 10.0 mi SW 10.4 mph - N/A   Clear
6:55 AM 53.6 °F 35.6 °F 51% 30.19 in 10.0 mi SW 10.4 mph - N/A   Clear
7:15 AM 51.8 °F 35.6 °F 54% 30.19 in 10.0 mi SW 9.2 mph - N/A   Clear
7:35 AM 51.8 °F 35.6 °F 54% 30.20 in 10.0 mi SW 9.2 mph - N/A   Clear
8:15 AM 55.4 °F 37.4 °F 51% 30.20 in 10.0 mi SW 11.5 mph 16.1 mph N/A   Clear
8:35 AM 55.4 °F 37.4 °F 51% 30.20 in 10.0 mi SW 13.8 mph - N/A   Clear
8:55 AM 55.4 °F 37.4 °F 51% 30.20 in 10.0 mi SW 10.4 mph 16.1 mph N/A   Clear
9:15 AM 57.2 °F 37.4 °F 48% 30.20 in 10.0 mi SW 11.5 mph - N/A   Clear
9:35 AM 59.0 °F 39.2 °F 48% 30.19 in 10.0 mi SW 9.2 mph - N/A   Clear
9:55 AM 60.8 °F 39.2 °F 45% 30.19 in 10.0 mi SW 11.5 mph - N/A   Clear
10:15 AM 62.6 °F 37.4 °F 39% 30.19 in 10.0 mi WSW 16.1 mph 20.7 mph N/A   Clear
10:35 AM 64.4 °F 39.2 °F 40% 30.17 in 10.0 mi SW 16.1 mph 24.2 mph N/A   Clear
10:55 AM 66.2 °F 39.2 °F 37% 30.16 in 10.0 mi WSW 15.0 mph 24.2 mph N/A   Clear
11:15 AM 66.2 °F 41.0 °F 40% 30.16 in 10.0 mi SW 16.1 mph 23.0 mph N/A   Clear
11:35 AM 66.2 °F 41.0 °F 40% 30.15 in 10.0 mi SW 16.1 mph 25.3 mph N/A   Clear
11:55 AM 69.8 °F 42.8 °F 38% 30.14 in 10.0 mi WSW 17.3 mph 20.7 mph N/A   Clear
12:15 PM 69.8 °F 42.8 °F 38% 30.13 in 10.0 mi WSW 17.3 mph 21.9 mph N/A   Clear
12:55 PM 71.6 °F 44.6 °F 38% 30.10 in 10.0 mi WSW 13.8 mph - N/A   Clear
1:15 PM 71.6 °F 44.6 °F 38% 30.09 in 10.0 mi SW 15.0 mph 19.6 mph N/A   Clear
1:35 PM 71.6 °F 44.6 °F 38% 30.08 in 10.0 mi SW 17.3 mph 21.9 mph N/A   Clear
1:55 PM 71.6 °F 46.4 °F 41% 30.08 in 10.0 mi WSW 12.7 mph 20.7 mph N/A   Clear
2:15 PM 71.6 °F 46.4 °F 41% 30.07 in 10.0 mi WSW 12.7 mph 18.4 mph N/A   Clear
2:35 PM 71.6 °F 46.4 °F 41% 30.07 in 10.0 mi SW 12.7 mph 20.7 mph N/A   Clear
2:55 PM 71.6 °F 48.2 °F 43% 30.06 in 10.0 mi SW 11.5 mph 21.9 mph N/A   Clear
3:15 PM 71.6 °F 48.2 °F 43% 30.06 in 10.0 mi WSW 12.7 mph - N/A   Clear
3:35 PM 71.6 °F 48.2 °F 43% 30.06 in 10.0 mi WSW 13.8 mph 18.4 mph N/A   Clear
3:55 PM 71.6 °F 48.2 °F 43% 30.06 in 10.0 mi SW 13.8 mph 19.6 mph N/A   Clear
4:15 PM 71.6 °F 48.2 °F 43% 30.06 in 10.0 mi SW 11.5 mph 16.1 mph N/A   Clear
4:35 PM 69.8 °F 48.2 °F 46% 30.06 in 10.0 mi SW 9.2 mph 17.3 mph N/A   Clear
4:55 PM 69.8 °F 50.0 °F 49% 30.07 in 10.0 mi SW 6.9 mph - N/A   Clear
5:15 PM 68.0 °F 50.0 °F 52% 30.07 in 10.0 mi SW 8.1 mph - N/A   Clear
5:35 PM 66.2 °F 50.0 °F 56% 30.08 in 10.0 mi SSW 8.1 mph - N/A   Clear
6:15 PM 64.4 °F 50.0 °F 59% 30.08 in 10.0 mi SSW 6.9 mph - N/A   Clear
6:35 PM 62.6 °F 50.0 °F 63% 30.08 in 10.0 mi South 6.9 mph - N/A   Clear
6:55 PM 64.4 °F 50.0 °F 59% 30.09 in 10.0 mi SSW 6.9 mph - N/A   Clear
7:15 PM 62.6 °F 50.0 °F 63% 30.09 in 10.0 mi SSW 6.9 mph - N/A   Clear
7:35 PM 62.6 °F 51.8 °F 68% 30.08 in 10.0 mi SSW 5.8 mph - N/A   Clear
7:55 PM 62.6 °F 51.8 °F 68% 30.08 in 10.0 mi SSW 5.8 mph - N/A   Clear
8:15 PM 62.6 °F 51.8 °F 68% 30.08 in 10.0 mi SSW 5.8 mph - N/A   Scattered Clouds
8:35 PM 62.6 °F 51.8 °F 68% 30.08 in 10.0 mi SSW 6.9 mph - N/A Rain Light Rain
8:55 PM 62.6 °F 53.6 °F 72% 30.09 in 10.0 mi SW 5.8 mph - N/A Rain Light Rain
9:15 PM 60.8 °F 53.6 °F 77% 30.09 in 10.0 mi SW 5.8 mph - N/A   Light Drizzle
9:55 PM 60.8 °F 53.6 °F 77% 30.09 in 10.0 mi SW 3.5 mph - N/A Rain Light Rain
10:15 PM 59.0 °F 55.4 °F 88% 30.09 in 10.0 mi WSW 3.5 mph - 0.01 in Rain Light Rain
10:35 PM 57.2 °F 55.4 °F 94% 30.09 in 10.0 mi WSW 4.6 mph - 0.03 in Rain Light Rain
10:55 PM 57.2 °F 55.4 °F 94% 30.09 in 10.0 mi West 3.5 mph - 0.04 in Rain Light Rain
11:15 PM 57.2 °F 55.4 °F 94% 30.09 in 10.0 mi West 4.6 mph - 0.02 in Rain Rain
11:35 PM 57.2 °F 55.4 °F 94% 30.09 in 10.0 mi SW 3.5 mph - 0.03 in Rain Rain
11:55 PM 57.2 °F 55.4 °F 94% 30.08 in 7.0 mi South 3.5 mph - 0.03 in Rain Rain